Location: Poughquag
(41.6090°N, 73.6820°W)
Time: 19:21:45
(UTC-05:00)

Transit 2A - Pass Details

Date: 08 December 2023
Orbit: 599 x 953 km, 66.7° (Epoch: 29 February)

Event Time Altitude Azimuth Distance (km) Brightness Sun altitude
Rises 13:10:23 0° 169° (S) 3,259 10.2 22.8°
Reaches altitude 10° 13:13:31 10° 152° (SSE) 2,263 9.1 22.6°
Maximum altitude 13:17:00 19° 109° (ESE) 1,678 7.9 22.3°
Drops below altitude 10° 13:20:18 10° 65° (ENE) 2,123 8.0 22.1°
Sets 13:23:07 0° 47° (NE) 2,985 8.5 21.9°
